CEB358 RPVR-RPLL

Flight info

Callsign CEB358
Flight time 0h 42m
Altitude 24000
Route MINOR3A MINOR B473 LAIYA LAIYA5P
Aircraft A320/M-SDE3FGHIRWY/LB1

Departure

Time 2026-04-17 08:45
Airport Roxas Airport (RPVR)

Arrival

Time 2026-04-17 09:27
Airport Ninoy Aquino International Airport (RPLL)
Time Latitude Longitude Altitude Speed Heading
2026-04-17 08:10 11.60128 122.74887 10 ft 0 kts 265°
2026-04-17 08:40 11.60130 122.74884 7 ft 1 kts 294°
2026-04-17 08:40 11.60136 122.74886 7 ft 1 kts
2026-04-17 08:41 11.60143 122.74898 12 ft 5 kts 54°
2026-04-17 08:41 11.60186 122.74918 7 ft 10 kts 17°
2026-04-17 08:41 11.60235 122.74962 7 ft 10 kts 110°
2026-04-17 08:41 11.60164 122.75004 7 ft 15 kts 143°
2026-04-17 08:42 11.60061 122.75079 8 ft 21 kts 145°
2026-04-17 08:42 11.59927 122.75174 10 ft 26 kts 145°
2026-04-17 08:42 11.59777 122.75281 10 ft 27 kts 144°
2026-04-17 08:42 11.59623 122.75392 9 ft 28 kts 145°
2026-04-17 08:43 11.59460 122.75510 8 ft 29 kts 145°
2026-04-17 08:43 11.59289 122.75630 7 ft 31 kts 145°
2026-04-17 08:43 11.59148 122.75731 8 ft 16 kts 146°
2026-04-17 08:43 11.59096 122.75766 8 ft 2 kts 275°
2026-04-17 08:44 11.59119 122.75752 8 ft 7 kts 324°
2026-04-17 08:44 11.59259 122.75655 7 ft 61 kts 324°
2026-04-17 08:44 11.59849 122.75230 10 ft 143 kts 325°
2026-04-17 08:44 11.60770 122.74586 533 ft 165 kts 327°
2026-04-17 08:45 11.61750 122.73909 1438 ft 172 kts 329°
2026-04-17 08:45 11.62753 122.73232 2119 ft 176 kts 328°
2026-04-17 08:45 11.63841 122.72505 2390 ft 198 kts 329°
2026-04-17 08:45 11.65073 122.71685 2690 ft 224 kts 328°
2026-04-17 08:46 11.66450 122.70767 3076 ft 249 kts 328°
2026-04-17 08:46 11.67949 122.69762 3646 ft 264 kts 327°
2026-04-17 08:46 11.69478 122.68734 4451 ft 269 kts 327°
2026-04-17 08:46 11.71058 122.67672 5265 ft 274 kts 327°
2026-04-17 08:47 11.72662 122.66596 6072 ft 279 kts 327°
2026-04-17 08:47 11.74299 122.65498 6832 ft 284 kts 327°
2026-04-17 08:47 11.75961 122.64382 7611 ft 288 kts 327°
2026-04-17 08:47 11.77645 122.63251 8392 ft 291 kts 328°
2026-04-17 08:48 11.79349 122.62109 9174 ft 295 kts 328°
2026-04-17 08:48 11.81079 122.60950 9922 ft 300 kts 328°
2026-04-17 08:48 11.82879 122.59743 10227 ft 321 kts 328°
2026-04-17 08:48 11.84810 122.58450 10491 ft 340 kts 328°
2026-04-17 08:49 11.86810 122.57111 11076 ft 346 kts 328°
2026-04-17 08:49 11.88834 122.55753 11751 ft 350 kts 328°
2026-04-17 08:49 11.90873 122.54386 12439 ft 352 kts 328°
2026-04-17 08:49 11.92926 122.53008 13125 ft 354 kts 328°
2026-04-17 08:50 11.94992 122.51617 13782 ft 357 kts 328°
2026-04-17 08:50 11.97069 122.50216 14334 ft 360 kts 328°
2026-04-17 08:50 11.99170 122.48803 14884 ft 363 kts 328°
2026-04-17 08:50 12.01288 122.47379 15430 ft 366 kts 328°
2026-04-17 08:51 12.03427 122.45942 15972 ft 369 kts 328°
2026-04-17 08:51 12.05582 122.44492 16505 ft 373 kts 328°
2026-04-17 08:51 12.07760 122.43027 17032 ft 376 kts 328°
2026-04-17 08:51 12.09955 122.41552 17554 ft 380 kts 328°
2026-04-17 08:52 12.12143 122.40081 18066 ft 383 kts 328°
2026-04-17 08:52 12.14376 122.38577 18521 ft 386 kts 328°
2026-04-17 08:52 12.16628 122.37060 18958 ft 389 kts 328°
2026-04-17 08:52 12.18892 122.35534 19406 ft 392 kts 328°
2026-04-17 08:53 12.21181 122.33997 19849 ft 394 kts 328°
2026-04-17 08:53 12.23480 122.32452 20288 ft 397 kts 328°
2026-04-17 08:53 12.25797 122.30895 20715 ft 400 kts 328°
2026-04-17 08:53 12.28126 122.29325 21132 ft 402 kts 327°
2026-04-17 08:54 12.30470 122.27743 21544 ft 405 kts 327°
2026-04-17 08:54 12.32833 122.26148 21960 ft 408 kts 327°
2026-04-17 08:54 12.35209 122.24542 22371 ft 411 kts 327°
2026-04-17 08:54 12.37599 122.22926 22789 ft 413 kts 327°
2026-04-17 08:55 12.39992 122.21289 23200 ft 415 kts 327°
2026-04-17 08:55 12.42393 122.19625 23561 ft 418 kts 326°
2026-04-17 08:55 12.44805 122.17943 23807 ft 421 kts 326°
2026-04-17 08:55 12.47212 122.16260 23871 ft 415 kts 326°
2026-04-17 08:56 12.49576 122.14609 23890 ft 409 kts 326°
2026-04-17 08:56 12.51918 122.12976 23890 ft 407 kts 326°
2026-04-17 08:56 12.54264 122.11345 23890 ft 407 kts 327°
2026-04-17 08:56 12.56607 122.09721 23890 ft 407 kts 327°
2026-04-17 08:57 12.58951 122.08097 23890 ft 407 kts 326°
2026-04-17 08:57 12.61295 122.06470 23890 ft 406 kts 327°
2026-04-17 08:57 12.63628 122.04849 23890 ft 405 kts 327°
2026-04-17 08:57 12.65930 122.03247 23890 ft 406 kts 326°
2026-04-17 08:58 12.68265 122.01619 23891 ft 406 kts 326°
2026-04-17 08:58 12.70600 121.99991 23892 ft 406 kts 327°
2026-04-17 08:58 12.72931 121.98365 23894 ft 406 kts 327°
2026-04-17 08:58 12.75266 121.96738 23895 ft 406 kts 326°
2026-04-17 08:59 12.77599 121.95114 23890 ft 406 kts 326°
2026-04-17 08:59 12.79955 121.93473 23889 ft 411 kts 326°
2026-04-17 08:59 12.82311 121.91832 23890 ft 408 kts 326°
2026-04-17 08:59 12.84652 121.90200 23890 ft 407 kts 326°
2026-04-17 09:00 12.86995 121.88567 23863 ft 406 kts 326°
2026-04-17 09:00 12.89299 121.86960 23646 ft 396 kts 326°
2026-04-17 09:00 12.91554 121.85386 23425 ft 389 kts 326°
2026-04-17 09:00 12.93782 121.83830 23168 ft 386 kts 326°
2026-04-17 09:01 12.95998 121.82283 22911 ft 384 kts 326°
2026-04-17 09:01 12.98199 121.80746 22655 ft 382 kts 327°
2026-04-17 09:01 13.00397 121.79212 22362 ft 380 kts 327°
2026-04-17 09:01 13.02570 121.77696 22059 ft 377 kts 327°
2026-04-17 09:02 13.04737 121.76184 21755 ft 375 kts 327°
2026-04-17 09:02 13.06892 121.74684 21467 ft 373 kts 327°
2026-04-17 09:02 13.09036 121.73190 21178 ft 372 kts 327°
2026-04-17 09:02 13.11166 121.71702 20890 ft 370 kts 327°
2026-04-17 09:03 13.13284 121.70220 20604 ft 368 kts 327°
2026-04-17 09:03 13.15390 121.68745 20322 ft 366 kts 327°
2026-04-17 09:03 13.17491 121.67276 20047 ft 364 kts 327°
2026-04-17 09:03 13.19582 121.65816 19763 ft 363 kts 327°
2026-04-17 09:04 13.21659 121.64364 19489 ft 361 kts 327°
2026-04-17 09:04 13.23730 121.62916 19216 ft 359 kts 327°
2026-04-17 09:04 13.25792 121.61474 18946 ft 358 kts 327°
2026-04-17 09:04 13.27843 121.60038 18679 ft 356 kts 327°
2026-04-17 09:05 13.29882 121.58607 18414 ft 354 kts 327°
2026-04-17 09:05 13.31911 121.57184 18145 ft 353 kts 327°
2026-04-17 09:05 13.33907 121.55786 17840 ft 351 kts 327°
2026-04-17 09:05 13.35918 121.54378 17534 ft 349 kts 327°
2026-04-17 09:06 13.37923 121.52974 17236 ft 348 kts 327°
2026-04-17 09:06 13.39916 121.51578 16931 ft 346 kts 327°
2026-04-17 09:06 13.41894 121.50190 16642 ft 343 kts 327°
2026-04-17 09:06 13.43858 121.48811 16347 ft 342 kts 328°
2026-04-17 09:07 13.45816 121.47437 16055 ft 340 kts 328°
2026-04-17 09:07 13.47768 121.46068 15879 ft 339 kts 328°
2026-04-17 09:07 13.49714 121.44705 15883 ft 339 kts 328°
2026-04-17 09:07 13.51665 121.43340 15941 ft 339 kts 328°
2026-04-17 09:08 13.53619 121.41982 16006 ft 338 kts 328°
2026-04-17 09:08 13.55536 121.40673 16079 ft 326 kts 331°
2026-04-17 09:08 13.57537 121.39616 16095 ft 323 kts 339°
2026-04-17 09:08 13.59644 121.38869 15852 ft 318 kts 347°
2026-04-17 09:09 13.61797 121.38363 15614 ft 317 kts 349°
2026-04-17 09:09 13.63944 121.37864 15378 ft 315 kts 349°
2026-04-17 09:09 13.66078 121.37364 15144 ft 314 kts 349°
2026-04-17 09:09 13.68176 121.36870 14909 ft 313 kts 349°
2026-04-17 09:10 13.72409 121.35867 14421 ft 310 kts 349°
2026-04-17 09:10 13.74508 121.35369 14195 ft 310 kts 349°
2026-04-17 09:10 13.76605 121.34873 13966 ft 308 kts 349°
2026-04-17 09:11 13.78689 121.34381 13747 ft 307 kts 349°
2026-04-17 09:11 13.80763 121.33890 13504 ft 305 kts 349°
2026-04-17 09:11 13.82832 121.33399 13245 ft 304 kts 349°
2026-04-17 09:11 13.84888 121.32912 12991 ft 303 kts 349°
2026-04-17 09:12 13.86946 121.32425 12740 ft 303 kts 349°
2026-04-17 09:12 13.89000 121.31939 12494 ft 302 kts 349°
2026-04-17 09:12 13.91048 121.31453 12246 ft 302 kts 349°
2026-04-17 09:12 13.92404 121.31133 12084 ft 302 kts 349°
2026-04-17 09:13 13.95137 121.30489 11759 ft 301 kts 349°
2026-04-17 09:13 13.97176 121.30009 11513 ft 300 kts 349°
2026-04-17 09:13 13.99213 121.29528 11274 ft 299 kts 350°
2026-04-17 09:13 14.01239 121.29050 11040 ft 299 kts 349°
2026-04-17 09:14 14.02584 121.28732 10883 ft 299 kts 349°
2026-04-17 09:14 14.04631 121.28424 10652 ft 296 kts
2026-04-17 09:14 14.06699 121.28417 10407 ft 297 kts
2026-04-17 09:14 14.08759 121.28399 10132 ft 295 kts
2026-04-17 09:15 14.10802 121.28376 9860 ft 292 kts
2026-04-17 09:15 14.13486 121.28348 9468 ft 291 kts
2026-04-17 09:15 14.14854 121.28335 9252 ft 290 kts
2026-04-17 09:15 14.16868 121.28319 8959 ft 289 kts
2026-04-17 09:16 14.18882 121.28306 8665 ft 289 kts
2026-04-17 09:16 14.20877 121.28294 8362 ft 285 kts
2026-04-17 09:16 14.22816 121.28281 8072 ft 280 kts
2026-04-17 09:16 14.24748 121.28269 7777 ft 276 kts
2026-04-17 09:17 14.26650 121.28257 7496 ft 271 kts 360°
2026-04-17 09:17 14.28526 121.28244 7206 ft 267 kts 359°
2026-04-17 09:17 14.30374 121.28232 6925 ft 263 kts 359°
2026-04-17 09:17 14.32195 121.28223 6642 ft 261 kts 359°
2026-04-17 09:18 14.34007 121.28215 6363 ft 260 kts 358°
2026-04-17 09:18 14.35807 121.28204 6072 ft 258 kts 358°
2026-04-17 09:18 14.37586 121.28191 5794 ft 253 kts 359°
2026-04-17 09:18 14.39306 121.28178 5671 ft 242 kts 359°
2026-04-17 09:19 14.40967 121.28166 5549 ft 237 kts 359°
2026-04-17 09:19 14.42607 121.28156 5426 ft 235 kts 359°
2026-04-17 09:19 14.44245 121.28144 5304 ft 235 kts 359°
2026-04-17 09:19 14.45879 121.28134 5181 ft 235 kts 359°
2026-04-17 09:20 14.47511 121.28124 5062 ft 234 kts 359°
2026-04-17 09:20 14.49116 121.28114 4942 ft 234 kts 358°
2026-04-17 09:20 14.50718 121.27810 4482 ft 240 kts 334°
2026-04-17 09:20 14.52174 121.26941 4120 ft 239 kts 328°
2026-04-17 09:21 14.53569 121.26063 4068 ft 232 kts 328°
2026-04-17 09:21 14.54944 121.25198 3980 ft 231 kts 328°
2026-04-17 09:21 14.56315 121.24335 3842 ft 231 kts 328°
2026-04-17 09:21 14.57694 121.23463 3661 ft 233 kts 326°
2026-04-17 09:22 14.58880 121.22340 3626 ft 231 kts 305°
2026-04-17 09:22 14.59612 121.20922 3530 ft 220 kts 285°
2026-04-17 09:22 14.59852 121.19401 3376 ft 212 kts 267°
2026-04-17 09:22 14.59622 121.17926 3179 ft 206 kts 248°
2026-04-17 09:23 14.59004 121.16623 2933 ft 198 kts 239°
2026-04-17 09:23 14.58327 121.15405 2680 ft 193 kts 238°
2026-04-17 09:23 14.57682 121.14242 2442 ft 181 kts 239°
2026-04-17 09:23 14.57077 121.13151 2241 ft 168 kts 238°
2026-04-17 09:24 14.56498 121.12108 2015 ft 165 kts 239°
2026-04-17 09:24 14.55923 121.11072 1801 ft 165 kts 239°
2026-04-17 09:24 14.55360 121.10057 1599 ft 157 kts 237°
2026-04-17 09:24 14.54837 121.09114 1388 ft 149 kts 238°
2026-04-17 09:25 14.54336 121.08211 1209 ft 144 kts 238°
2026-04-17 09:25 14.53840 121.07318 1030 ft 143 kts 237°
2026-04-17 09:25 14.53352 121.06439 867 ft 142 kts 238°
2026-04-17 09:25 14.52868 121.05567 692 ft 141 kts 239°
2026-04-17 09:26 14.52384 121.04696 517 ft 139 kts 241°
2026-04-17 09:26 14.51910 121.03840 353 ft 136 kts 243°
2026-04-17 09:26 14.51443 121.02998 155 ft 135 kts 242°
2026-04-17 09:26 14.50992 121.02179 68 ft 121 kts 241°
2026-04-17 09:27 14.50690 121.01638 65 ft 49 kts 241°
2026-04-17 09:27 14.50547 121.01368 64 ft 30 kts 248°
2026-04-17 09:27 14.50524 121.01207 64 ft 16 kts 268°
2026-04-17 09:27 14.50590 121.01179 67 ft 13 kts 45°
2026-04-17 09:28 14.50630 121.01249 64 ft 10 kts 60°
2026-04-17 09:28 14.50663 121.01308 66 ft 9 kts 60°
2026-04-17 09:28 14.50694 121.01364 62 ft 9 kts 60°
2026-04-17 09:28 14.50733 121.01435 64 ft 14 kts 60°
2026-04-17 09:29 14.50792 121.01540 64 ft 20 kts 59°
2026-04-17 09:29 14.50864 121.01669 65 ft 20 kts 60°
2026-04-17 09:29 14.50931 121.01791 68 ft 19 kts 60°
2026-04-17 09:29 14.50992 121.01900 66 ft 17 kts 60°
2026-04-17 09:30 14.51044 121.01985 67 ft 11 kts 38°
2026-04-17 09:30 14.51104 121.01953 64 ft 11 kts 315°
2026-04-17 09:30 14.51171 121.01884 59 ft 18 kts 314°
2026-04-17 09:30 14.51268 121.01784 66 ft 21 kts 315°
2026-04-17 09:31 14.51377 121.01672 66 ft 23 kts 315°
2026-04-17 09:31 14.51489 121.01556 67 ft 24 kts 315°
2026-04-17 09:31 14.51608 121.01432 64 ft 25 kts 315°
2026-04-17 09:31 14.51730 121.01307 69 ft 25 kts 315°
2026-04-17 09:32 14.51851 121.01182 64 ft 23 kts 315°
2026-04-17 09:32 14.51964 121.01066 65 ft 24 kts 314°
2026-04-17 09:32 14.52080 121.00947 63 ft 19 kts 316°
2026-04-17 09:32 14.52146 121.00879 62 ft 10 kts 315°
2026-04-17 09:33 14.52191 121.00896 67 ft 7 kts 47°
2026-04-17 09:33 14.52224 121.00931 66 ft 6 kts 45°
2026-04-17 09:33 14.52237 121.00944 64 ft 0 kts 45°